THORAD AGENA D DEB, 5736

Orbit data source: Space-Track

THORAD AGENA D DEB, 5736 is space debris in SSO originally from a launch on Wed, 08 Apr 1970 UTC launched from the Air Force Western Test Range (AFWTR). Debris objects in space refer to the collection of defunct objects orbiting the Earth. Examples of debris include non-operational satellites, rocket bodies, and fragments generated from explosions, collisions, or faulty payload assembly.

Loading next visibility...
Identifier
5736, 1970-025MH
Orbit
SSO
Country
Flag of USUS
Related business
Manufacturer
Unknown
Mission
Spacecraft
Bus & Motor
Unknown
Mass
Unknown
Launch date (UTC)
1970-04-08 (56 years ago)
Launch vehicle
Unknown
Launch site
Air Force Western Test Range (AFWTR)
Object type
Payload
Rocket body
Debris
Shape & HBR
Unknown shape, 0.1 m
Radar Cross Section
Medium (>0.1 m² and <1 m²)

Expand to show TLE details & history
Last TLE update: 9 hours ago

TLE from 9 hours ago
0 THORAD AGENA D DEB
1  5736U 70025MH  26256.96811470  .00000333  00000-0  90029-3 0  9994
2  5736 101.4366 256.1415 0226844  46.4540 343.5630 13.15032158704742
Epoch: 2026-09-13T23:14Z
TLE epoch observation values (Epoch: 2026-09-13T23:14:05.110Z)
Latitude
28.67263°
Longitude
-91.65356°
Altitude
1,042.421 km
Speed
7.412 km/s
True Right ascension
16h 39m 17s
True Declination
28° 32' 01"
Sunlit
Object was in daylight at epoch
Visualization orbit readout
Latitude
Unknown
Longitude
Unknown
Altitude
Unknown
Speed
Unknown
Apparent Right ascension
Unknown
Apparent Declination
Unknown
Sunlit
N/A
Visualization observer readout
Local Sidereal Time
01:14:02
Azimuth
Unknown
Elevation
Unknown
Doppler factor
Unknown
Orbital elements
Apogee altitude
1,373.129 km
Perigee altitude
1,029.264 km
Semi-major axis
7,579.333 km
Eccentricity
0.02268
Inclination
101.4366°
RAAN
256.1415°
Arg. of periapsis
46.454°
True anomaly
342.80694°
Mean anomaly
343.563°
Eccentric anomaly
343.18706°
Mean motion
3.28925 °/min
Orbital period
109.45 mins
BSTAR
0.00090029
Loading maneuver chart data...
Computing Atmospheric mass density...

Documentation

Showing up to 5 results
|